Location: Dennis Manor
(64.8292°N, 147.5397°W)
Time: 09:04:39
(UTC+00:00)

Envisat - Pass Details

Date: 31 October 2020
Orbit: 764 x 766 km, 98.1° (Epoch: 05 December)

Event Time Altitude Azimuth Distance (km) Brightness Sun altitude
Rises 02:30:21 0° 165° (SSE) 3,231 6.3 -6.3°
Reaches altitude 10° 02:32:39 10° 167° (SSE) 2,308 5.6 -6.5°
Maximum altitude 02:37:45 74° 252° (WSW) 804 3.3 -7.0°
Drops below altitude 10° 02:42:52 10° 339° (NNW) 2,321 5.6 -7.6°
Sets 02:45:12 0° 341° (NNW) 3,251 6.3 -7.8°
